This is the latest recevied weather packets stored in our database for station/object KE1THD. If no packets are shown the sender has not sent any weather packets the latest 10 day(s).
| Time | Temp. | Humidity | Pressure | Rain* | Wind** | Luminosity | Snow |
|---|---|---|---|---|---|---|---|
| 1778117731 | 9.44° C | 43% | 1015.8 hPa | 0 mm | - | 0 W/m² | - |
| 1778117428 | 10° C | 43% | 1015.9 hPa | 0 mm | - | 0 W/m² | - |
| 1778117125 | 10° C | 43% | 1015.8 hPa | 0 mm | - | 0 W/m² | - |
| 1778116821 | 10° C | 42% | 1015.8 hPa | 0 mm | - | 0 W/m² | - |
| 1778116519 | 10.56° C | 42% | 1015.7 hPa | 0 mm | - | 0 W/m² | - |
| 1778116214 | 10.56° C | 41% | 1015.8 hPa | 0 mm | - | 0 W/m² | - |
| 1778115909 | 10.56° C | 40% | 1015.5 hPa | 0 mm | - | 3 W/m² | - |
| 1778115606 | 10.56° C | 40% | 1015.5 hPa | 0 mm | - | 4 W/m² | - |
| 1778115303 | 11.11° C | 39% | 1015.5 hPa | 0 mm | - | 6 W/m² | - |
| 1778115000 | 11.11° C | 38% | 1015.6 hPa | 0 mm | - | 10 W/m² | - |
| 1778114697 | 11.11° C | 38% | 1015.7 hPa | 0 mm | - | 14 W/m² | - |
| 1778114394 | 11.11° C | 38% | 1015.5 hPa | 0 mm | - | 16 W/m² | - |
| 1778114089 | 11.67° C | 38% | 1015.6 hPa | 0 mm | - | 20 W/m² | - |
| 1778113784 | 11.67° C | 38% | 1015.5 hPa | 0 mm | - | 25 W/m² | - |
| 1778113481 | 11.67° C | 38% | 1015.6 hPa | 0 mm | - | 30 W/m² | - |
| 1778113178 | 11.67° C | 38% | 1015.8 hPa | 0 mm | - | 36 W/m² | - |
| 1778112875 | 11.67° C | 37% | 1015.7 hPa | 0 mm | - | 49 W/m² | - |
| 1778112572 | 11.67° C | 37% | 1015.6 hPa | 0 mm | - | 50 W/m² | - |
| 1778112267 | 12.22° C | 36% | 1015.5 hPa | 0 mm | - | 52 W/m² | - |
| 1778111963 | 12.22° C | 37% | 1015.7 hPa | 0 mm | - | 66 W/m² | - |
| 1778111661 | 12.22° C | 36% | 1015.6 hPa | 0 mm | - | 87 W/m² | - |
| 1778111356 | 11.67° C | 37% | 1015.5 hPa | 0 mm | - | 119 W/m² | - |
| 1778111055 | 11.67° C | 38% | 1015.6 hPa | 0 mm | - | 124 W/m² | - |
| 1778110752 | 11.67° C | 37% | 1015.7 hPa | 0 mm | - | 63 W/m² | - |
| 1778110448 | 11.67° C | 37% | 1015.4 hPa | 0 mm | - | 124 W/m² | - |
* Rain latest hour (hover to see other rain measurements)
** Current wind speed in m/s (hover to see current wind gust speed)